GFSMW_250_spd_165.txt.gz
Wind_Speed
68 74 72 73 74 71 68 65 68 67 68 66 69 63 60 61 62 61 60 53 54 55 54 56 53 54 57 59 59 59 62 66 65 63 64 65 65 64 63 65 72 75 81
68 74 76 78 81 77 77 78 74 71 73 73 71 66 67 69 68 68 63 61 58 58 60 59 56 58 61 61 61 60 65 66 67 66 63 63 64 63 58 60 67 68 76
70 76 81 83 84 85 82 75 73 73 73 75 75 71 73 72 70 72 70 68 66 65 63 66 64 64 64 68 68 69 67 66 70 69 66 63 61 64 60 54 58 63 65
75 77 84 85 85 85 81 75 74 73 77 78 72 75 74 76 74 73 74 70 71 71 72 69 70 70 70 69 72 74 74 71 71 70 68 62 62 63 50 55 49 59 61
74 77 80 81 82 80 79 79 78 79 79 76 77 77 78 79 76 77 75 74 75 77 76 76 74 77 75 76 76 76 78 77 75 71 70 66 63 60 50 49 48 54 63
83 86 83 79 77 78 79 82 83 83 83 82 81 80 83 82 78 79 78 78 83 82 83 82 81 83 80 81 80 80 82 80 79 72 72 67 64 62 51 47 50 50 65
87 85 82 81 80 81 82 83 83 84 85 86 85 87 87 82 82 82 83 84 84 86 86 87 89 85 86 84 84 84 84 84 81 75 69 66 64 62 53 47 47 51 65
91 91 89 89 85 85 87 89 89 89 90 90 90 90 86 84 85 89 91 90 90 89 91 92 92 91 89 88 87 89 86 87 85 78 70 68 66 60 52 48 45 51 59
89 90 89 91 89 88 87 87 87 88 89 90 90 92 91 95 95 96 93 91 91 95 96 97 94 92 91 90 92 90 88 89 84 77 73 70 65 61 51 49 48 47 59
87 89 90 90 90 90 88 87 88 90 91 92 92 94 96 96 94 96 96 97 100 100 99 98 102 100 97 97 94 92 91 89 84 77 74 71 65 60 56 48 52 49 57
90 89 88 87 88 89 90 91 92 93 95 97 97 96 97 99 101 103 105 105 106 106 105 107 106 103 101 98 90 90 87 84 80 77 74 70 66 60 57 51 53 53 56
88 88 90 90 88 90 92 94 96 98 100 101 101 103 104 106 107 108 109 110 112 113 111 110 109 105 104 100 98 93 91 84 80 76 74 70 66 61 57 53 56 57 60
90 93 93 92 94 94 93 94 96 97 99 101 104 106 107 109 109 112 114 116 116 118 116 116 115 108 106 104 94 92 87 80 79 75 72 70 67 62 58 55 56 60 62
95 94 96 98 99 98 100 100 101 102 102 102 104 106 108 112 114 116 120 120 119 118 118 114 110 111 103 92 90 86 80 76 75 72 70 70 68 64 59 56 57 62 60
98 96 100 98 98 99 102 102 102 102 103 105 107 110 113 115 118 119 119 118 118 114 110 106 94 90 88 86 84 81 78 73 72 71 73 72 67 64 60 57 59 62 64
96 97 102 102 102 100 100 101 102 104 105 107 111 115 116 116 116 115 113 111 104 97 90 87 84 82 80 78 79 77 76 74 72 71 73 73 69 66 62 59 58 62 66
96 98 101 103 103 104 104 103 104 105 106 107 108 110 110 108 107 106 102 92 87 86 83 81 80 81 81 79 77 76 73 74 75 74 73 75 71 67 62 61 59 64 65
100 99 99 97 97 97 97 98 98 101 102 101 102 104 105 102 96 89 87 83 81 79 78 78 78 78 78 76 74 74 74 74 76 74 75 73 70 67 62 59 60 63 64
97 96 94 95 96 97 96 96 98 102 102 100 101 97 88 85 81 79 77 76 76 76 77 74 73 71 71 70 69 70 71 72 71 70 68 68 68 68 62 57 59 63 65
96 95 95 97 97 97 97 100 100 99 98 88 81 77 74 72 72 72 71 70 69 68 68 66 65 64 65 65 64 63 64 67 65 63 64 63 65 65 60 55 58 65 63
99 98 99 97 97 96 97 98 94 83 75 71 68 67 67 66 65 65 65 64 66 65 65 63 62 61 60 61 61 59 59 59 59 57 54 52 54 57 56 54 57 65 62
97 94 91 89 92 90 82 74 68 64 62 62 61 60 60 60 60 61 60 59 59 59 58 56 55 52 51 51 53 53 52 51 50 50 49 49 49 49 47 54 57 61 61
78 76 75 71 65 62 59 56 55 54 54 53 54 55 56 56 55 55 55 54 53 52 50 48 49 48 46 45 45 45 45 45 45 45 46 46 47 48 48 52 55 55 59
53 53 51 50 49 48 47 46 46 48 49 51 51 50 50 49 47 48 48 48 49 50 50 42 39 42 43 42 41 39 40 39 39 40 43 43 43 47 51 53 53 54 60
40 39 40 40 39 38 40 42 44 47 48 47 46 44 41 42 42 44 46 46 46 48 48 47 39 36 38 37 39 36 34 36 35 35 37 41 42 47 50 51 51 53 59
32 33 32 32 33 36 40 43 45 44 43 41 39 38 39 40 40 41 42 44 43 42 42 42 41 35 33 35 34 33 32 33 32 32 34 38 43 46 47 49 50 53 58

GFSMW_250_spd_168.txt.gz
Wind_Speed
58 58 68 71 66 67 63 62 63 62 63 67 69 70 70 66 64 61 66 69 60 61 65 62 61 60 57 56 56 55 55 56 56 50 52 57 57 61 62 62 62 61 64
58 63 65 67 65 68 68 67 71 70 71 72 73 71 65 63 62 65 68 64 65 66 66 63 63 62 64 62 62 63 64 64 65 60 57 57 60 62 64 62 62 59 58
67 65 67 65 68 69 72 70 70 71 73 73 71 69 65 65 68 71 69 68 71 70 69 69 68 68 66 68 68 67 68 70 72 70 67 64 62 62 68 66 63 60 57
67 66 74 74 76 76 74 72 74 72 72 80 82 76 71 70 75 73 73 74 76 75 74 75 74 73 71 72 75 76 72 71 75 73 72 68 68 66 62 70 69 62 56
74 70 78 82 80 78 78 76 77 82 85 82 81 79 78 75 75 78 77 78 78 80 81 79 77 76 75 81 82 80 77 78 78 76 75 75 74 74 67 61 70 69 55
84 80 78 79 81 85 85 85 82 84 82 79 81 78 77 78 80 81 81 83 84 85 81 83 81 81 86 88 86 83 83 84 79 76 79 78 77 78 74 68 65 66 63
89 90 89 89 85 87 86 88 89 87 90 90 87 82 81 79 80 82 82 81 81 83 86 88 88 92 92 90 89 88 90 88 87 86 85 83 80 78 78 73 65 66 57
93 92 91 93 90 91 90 91 90 91 91 90 87 87 87 86 84 84 84 83 83 86 88 89 93 92 93 92 95 96 95 94 93 92 89 84 84 79 76 73 67 64 55
95 97 96 97 96 93 89 86 87 90 89 90 91 90 91 91 89 88 89 90 91 92 93 92 92 95 96 99 101 101 99 99 97 97 94 88 85 83 81 77 73 65 56
98 98 94 91 90 91 94 94 91 90 93 91 90 90 91 90 90 92 94 96 97 97 97 98 99 102 103 105 105 105 103 103 104 102 98 95 92 86 81 80 75 68 57
97 91 93 100 96 95 96 94 93 90 90 91 92 94 94 94 95 97 97 97 98 99 101 103 104 106 108 108 106 107 108 111 108 105 102 98 95 93 89 82 76 69 59
102 102 98 98 97 96 95 94 93 92 93 94 96 98 100 102 105 107 108 108 108 109 111 113 111 111 111 111 112 112 112 111 111 106 105 100 97 93 87 79 75 68 64
95 93 94 93 92 91 92 93 92 96 98 98 101 104 105 107 108 110 112 112 113 114 114 114 114 115 115 114 115 114 112 109 108 105 102 97 93 90 83 77 73 70 66
93 92 94 94 96 96 95 99 102 100 101 103 104 106 108 109 108 108 109 109 110 111 112 113 114 114 114 112 110 108 106 102 100 96 88 84 82 80 78 73 72 70 67
106 100 98 96 100 101 100 103 103 104 104 107 107 106 107 110 109 110 110 109 110 112 113 111 109 109 108 105 104 100 96 90 86 84 79 79 78 77 74 70 71 70 68
103 95 99 102 103 104 98 102 103 103 104 105 105 107 107 107 108 108 106 106 106 107 108 106 104 101 96 92 90 86 85 84 83 81 79 78 77 73 69 70 70 72 70
96 90 98 103 103 101 99 100 101 102 103 104 105 104 104 102 100 100 101 104 105 104 100 93 89 87 83 81 80 78 77 80 79 78 77 77 76 74 73 71 71 72 71
100 91 96 95 92 94 95 97 100 101 102 102 101 99 99 99 100 100 101 99 95 88 85 81 79 77 76 75 74 74 73 72 71 71 71 72 73 69 71 72 72 70 71
99 96 94 92 92 93 94 96 97 98 99 99 97 98 99 98 97 96 91 83 80 77 75 73 72 72 70 69 69 68 68 69 68 66 66 66 67 69 67 66 67 65 64
95 95 93 92 93 93 92 94 96 96 94 97 98 97 93 89 84 77 75 73 72 70 71 70 67 65 65 65 63 64 62 59 59 58 60 60 61 62 62 61 60 61 63
84 87 91 92 93 93 91 92 90 94 94 92 88 82 75 70 68 68 68 69 69 67 65 65 63 62 61 61 62 62 57 53 53 53 53 51 53 55 55 53 52 56 59
78 80 82 83 82 80 83 85 86 86 81 72 66 62 61 61 62 63 65 64 63 62 61 60 59 57 56 52 54 56 49 45 46 47 48 48 46 48 49 52 53 52 54
67 68 69 68 68 69 69 66 62 58 56 53 52 53 55 57 59 60 59 59 57 56 55 57 55 52 50 44 45 49 46 42 41 42 42 42 42 42 44 47 51 52 53
54 55 53 55 54 54 54 51 47 44 44 45 48 50 53 56 55 54 52 53 52 53 52 51 52 52 50 45 40 42 45 42 39 38 38 38 39 40 41 43 48 51 53
43 45 46 47 46 43 39 37 37 39 41 44 48 51 51 50 50 47 47 47 48 48 49 47 46 48 49 49 44 40 42 40 39 35 35 34 34 36 38 39 41 45 50
39 38 37 34 32 32 33 33 36 40 44 47 48 48 47 46 43 44 45 46 46 47 46 44 44 43 42 43 43 38 39 37 37 33 31 30 30 32 34 35 37 40 46

GFSMW_250_spd_171.txt.gz
Wind_Speed
58 50 50 53 62 61 61 60 57 57 58 55 57 57 56 56 58 57 59 62 63 58 58 61 64 65 63 65 65 65 64 63 59 56 57 58 58 57 56 57 56 57 58
61 55 54 51 53 58 68 70 71 67 64 61 64 67 66 60 61 60 67 71 69 66 65 65 67 68 71 72 69 70 71 66 67 62 60 63 67 61 62 61 61 61 60
59 61 66 65 61 60 65 69 71 73 69 71 75 75 74 72 66 67 66 64 66 66 65 68 70 74 73 72 73 75 75 70 71 69 66 69 67 68 68 66 63 60 60
65 60 68 75 70 68 69 70 72 74 73 73 71 73 74 69 70 71 72 71 71 72 74 74 75 75 76 77 78 80 74 72 72 74 73 76 72 70 68 75 73 66 65
77 73 70 75 76 75 79 78 77 80 82 78 76 73 73 75 75 77 78 79 78 77 78 79 78 79 78 80 84 79 77 76 76 76 81 83 78 77 73 66 72 78 73
82 82 80 83 85 88 91 86 85 86 86 88 85 83 84 85 82 81 82 84 87 89 88 83 81 82 83 83 83 80 79 81 83 84 84 83 81 82 82 74 71 68 75
86 85 82 80 85 87 88 88 87 91 90 88 88 88 88 88 87 88 89 89 88 89 90 90 88 86 85 85 84 84 84 86 86 87 87 86 87 86 87 83 77 73 70
102 100 98 93 87 88 92 91 88 91 95 95 93 92 90 88 90 90 93 94 91 92 93 91 91 93 92 90 91 93 95 95 95 94 93 93 95 95 92 86 79 77 75
110 106 103 100 98 96 96 95 95 94 96 93 90 90 93 92 95 95 95 96 95 93 93 92 91 95 98 99 99 101 103 104 105 104 102 102 102 101 98 94 88 82 79
114 107 105 103 98 96 98 99 95 96 97 95 94 94 97 99 97 98 99 94 92 92 94 96 98 101 103 104 106 107 109 109 109 109 108 109 106 104 103 99 94 88 83
109 108 107 103 99 98 96 86 87 89 89 91 95 99 99 99 99 100 97 93 92 94 98 102 105 106 107 108 109 111 111 112 112 111 108 108 107 106 104 101 98 93 86
106 104 105 103 99 97 91 87 94 92 93 94 97 100 100 99 103 95 94 93 97 102 107 108 108 110 112 111 111 111 109 109 108 106 105 106 106 105 104 102 99 93 87
104 103 99 92 90 86 86 90 95 99 95 93 95 97 100 99 102 98 99 102 107 110 110 110 112 112 111 110 109 107 105 104 105 105 103 103 102 100 97 95 90 88 82
101 98 97 95 94 94 90 93 94 93 92 93 99 100 99 100 101 105 106 108 109 110 110 111 111 110 108 106 105 103 104 104 103 101 97 94 90 87 84 81 78 75 71
99 99 100 98 98 97 97 98 99 100 101 102 103 101 99 100 105 106 107 106 107 109 108 108 106 107 106 105 104 104 103 97 92 88 84 82 78 76 75 72 70 68 65
93 93 94 97 99 99 98 97 96 99 99 95 95 95 96 100 104 103 100 100 102 102 102 100 102 105 102 101 98 90 86 84 81 79 78 75 72 70 70 68 66 64 62
96 96 97 98 101 102 100 97 95 95 94 93 93 94 95 96 93 94 95 96 97 98 97 98 99 98 93 84 82 81 79 77 76 73 72 71 67 64 64 64 63 62 62
94 96 98 98 101 103 99 96 92 93 92 92 93 92 91 90 90 92 93 94 94 93 94 92 86 80 77 76 75 74 72 70 68 66 65 65 64 60 58 60 61 61 60
83 87 91 88 85 85 87 87 85 85 88 89 90 90 89 89 89 89 89 89 88 86 80 75 71 71 71 70 70 71 69 67 63 59 57 55 56 57 56 54 57 59 60
79 80 80 79 79 79 81 84 85 84 86 85 84 84 86 84 84 84 83 82 74 69 65 65 67 67 67 66 64 64 67 66 64 57 52 49 48 49 51 51 50 53 55
74 74 74 74 76 76 77 78 78 79 78 79 79 78 78 77 74 71 63 63 60 59 62 63 63 63 63 61 60 60 59 58 63 60 52 44 43 45 47 47 49 48 52
65 67 68 66 68 69 69 67 67 66 69 69 67 65 62 60 59 56 55 54 57 60 59 60 60 59 58 57 57 56 55 46 47 57 49 43 41 41 42 44 45 47 49
57 57 57 60 64 62 61 59 57 58 55 55 53 55 53 49 49 50 52 56 56 55 57 57 56 56 56 56 56 55 54 47 38 41 46 42 38 38 38 41 42 44 46
51 52 48 52 52 51 49 50 49 48 47 50 46 44 44 45 48 51 53 53 52 54 55 54 54 54 54 53 53 53 52 53 50 43 37 40 39 37 35 35 38 41 43
44 42 42 42 40 40 41 41 42 42 40 38 38 40 43 48 51 50 50 50 52 52 51 52 52 54 53 52 50 47 47 47 49 48 41 38 36 34 33 31 33 36 39
37 36 35 35 35 36 36 34 33 31 32 35 39 43 47 49 49 47 48 49 51 52 53 53 54 52 50 49 47 44 43 43 43 43 41 36 34 31 29 29 30 31 32

GFSMW_250_spd_177.txt.gz
Wind_Speed
61 65 67 70 70 64 64 59 59 61 59 60 58 54 55 56 59 62 63 68 71 67 67 67 68 69 72 75 76 72 69 66 65 64 66 67 66 70 70 69 72 70 69
70 70 69 72 74 77 73 71 67 66 63 61 63 61 58 59 62 67 71 72 72 74 75 74 72 73 76 76 72 70 72 68 69 69 69 73 73 71 73 72 74 73 74
69 71 73 70 73 77 77 75 74 72 71 72 73 72 74 75 75 80 79 76 75 76 76 77 80 87 83 81 81 84 81 81 73 72 74 73 73 75 77 75 77 76 76
81 74 76 77 81 82 83 81 81 79 79 77 76 78 80 82 83 84 87 82 83 82 85 87 86 87 86 87 86 86 85 83 82 83 78 74 74 74 75 83 84 84 81
83 84 80 85 87 89 86 87 88 89 90 83 83 82 84 85 87 89 87 84 82 85 85 86 90 90 93 94 91 89 88 89 86 80 78 80 81 81 78 75 85 90 90
95 93 91 90 90 94 95 95 96 98 96 90 84 85 87 91 91 90 90 91 93 96 91 96 94 93 93 94 91 91 90 88 84 84 85 86 85 87 86 83 82 82 91
103 98 97 97 96 95 99 100 102 98 90 87 88 89 92 94 94 97 98 98 102 107 103 102 91 88 92 89 89 88 88 89 89 88 87 89 90 89 89 86 85 85 82
107 105 103 103 102 100 100 97 96 101 101 99 102 106 106 106 107 107 109 104 104 102 101 99 90 87 89 88 89 91 92 89 88 89 92 94 98 99 96 93 88 88 87
110 111 105 109 108 105 105 106 109 108 107 104 107 107 110 113 112 112 113 112 108 105 98 98 92 90 91 88 89 93 98 96 91 94 98 104 106 102 101 100 95 95 90
113 111 113 113 112 113 115 118 119 117 112 110 111 113 113 112 112 107 108 107 100 100 99 93 90 90 89 91 94 98 98 102 103 107 107 101 102 107 110 106 105 103 102
122 120 118 113 113 116 116 114 116 114 112 110 110 111 109 107 108 108 103 105 104 100 92 88 87 90 91 93 98 101 103 106 107 109 108 106 108 111 113 116 111 109 107
124 119 116 116 114 113 115 111 110 108 106 107 111 110 111 107 106 105 102 101 97 93 90 90 89 89 90 95 97 99 103 105 108 109 110 111 112 109 109 108 104 101 97
113 109 108 105 102 100 100 101 99 99 98 98 97 96 98 99 100 97 94 92 89 86 86 88 90 92 95 98 100 102 104 103 102 102 102 102 103 103 102 98 96 96 92
102 97 95 90 89 88 91 92 88 88 91 91 92 93 94 93 93 94 93 91 90 90 89 94 96 98 98 99 100 101 101 98 99 98 97 99 98 95 94 93 91 86 80
86 86 85 81 80 83 86 80 80 82 85 87 90 93 93 92 91 88 87 89 92 94 96 97 98 97 96 97 98 95 94 93 92 93 93 91 89 88 84 82 81 79 74
84 81 80 84 82 83 85 82 82 83 86 88 90 90 91 89 85 85 85 86 89 92 93 93 92 93 93 94 92 89 88 87 87 85 86 82 78 77 77 79 76 73 62
83 80 81 83 86 87 89 88 85 86 88 88 91 90 89 83 78 81 82 83 84 85 85 86 87 86 85 84 83 81 79 79 78 74 71 72 74 74 73 74 73 69 55
86 88 85 90 95 94 88 86 87 88 87 87 89 90 85 81 79 79 78 78 77 76 77 77 76 75 74 73 72 70 70 68 68 66 68 70 69 69 69 69 69 68 56
84 87 88 94 100 93 86 82 84 89 88 86 88 85 80 78 77 76 74 74 71 70 68 67 67 65 64 63 63 62 61 62 64 66 66 66 65 64 64 65 64 65 58
81 82 84 87 84 86 87 83 81 87 89 82 76 73 76 74 73 71 69 64 63 61 62 61 60 58 58 56 55 58 60 63 65 65 65 64 62 60 60 59 57 58 55
74 75 76 78 79 81 83 82 78 79 84 82 71 67 64 61 61 60 62 60 58 57 57 55 54 52 50 52 55 58 61 62 63 63 64 64 63 60 57 55 52 50 49
72 71 71 73 75 77 77 76 75 75 71 68 62 58 57 57 57 57 57 54 52 51 51 50 47 47 51 55 57 58 60 61 61 61 62 62 60 57 52 50 48 46 46
62 63 64 68 69 70 69 66 67 65 62 58 56 55 53 54 56 55 49 46 47 47 44 44 46 50 55 57 57 58 60 58 58 58 57 55 54 52 48 45 45 42 43
51 51 52 55 58 59 58 59 57 55 54 53 50 51 51 53 50 44 43 43 41 41 42 46 51 53 54 56 58 58 56 56 56 54 54 54 54 54 51 48 44 42 41
43 47 49 50 51 51 49 48 47 45 42 47 48 46 45 41 40 40 37 37 39 42 47 50 51 52 55 56 55 55 55 55 54 55 55 56 56 56 54 49 43 39 39
41 41 41 40 36 32 31 34 37 39 41 42 38 36 36 35 33 33 36 40 43 45 47 49 51 53 54 53 52 51 52 51 53 54 53 54 54 54 53 50 48 42 39

GFSMW_250_spd_180.txt.gz
Wind_Speed
56 59 61 62 64 65 63 64 64 65 64 62 62 62 61 59 58 59 60 61 61 65 65 67 66 68 74 72 70 69 69 70 72 79 74 73 72 71 74 69 72 70 71
68 67 68 67 67 68 72 72 73 73 72 71 70 68 67 66 69 69 68 68 69 70 72 75 78 78 78 79 77 78 76 76 78 80 81 80 78 81 78 79 71 75 73
73 73 75 75 73 73 74 76 77 78 79 75 75 78 77 76 75 75 75 75 78 81 81 78 79 79 81 85 84 84 83 79 82 80 84 85 85 86 85 83 81 81 79
70 69 73 76 77 78 82 86 84 85 85 86 87 82 82 83 84 83 83 83 83 82 83 80 78 80 85 86 87 88 86 90 91 90 86 88 87 89 88 88 87 86 83
79 81 81 83 86 86 85 86 89 91 97 96 93 89 87 87 86 89 90 89 86 87 88 85 84 87 86 85 88 96 96 97 100 101 91 87 89 89 85 83 90 90 89
87 87 90 89 91 92 94 99 101 103 103 104 102 101 99 93 93 93 92 88 83 85 85 84 89 94 94 96 102 102 106 107 104 102 92 90 92 90 92 87 86 86 95
96 94 93 96 98 98 99 104 108 108 107 108 109 107 104 100 97 95 92 90 92 88 100 101 101 101 99 102 104 109 107 105 103 97 91 93 94 96 96 96 96 93 90
103 103 105 107 108 106 108 111 114 114 116 116 111 107 100 102 103 103 106 105 104 112 107 104 103 107 109 110 105 105 104 103 100 95 89 92 97 97 99 99 101 102 96
107 110 115 113 111 113 116 121 121 119 117 112 108 109 110 110 108 109 110 108 105 100 109 107 105 103 105 105 103 103 104 98 96 91 89 93 92 95 99 101 100 98 99
114 115 116 119 121 124 127 127 123 120 117 116 112 111 111 110 104 106 105 105 98 101 104 105 106 106 106 105 103 99 97 93 91 92 95 95 96 99 101 102 105 106 106
121 125 127 126 128 131 131 127 124 124 124 117 114 109 106 101 102 101 103 102 100 102 100 97 98 101 100 98 97 94 92 89 90 93 94 98 99 99 102 103 103 105 107
129 131 135 133 130 124 121 121 121 117 110 112 107 103 95 95 100 107 104 95 97 96 98 97 95 96 95 93 92 89 88 89 90 92 93 94 97 100 103 104 106 107 106
132 127 124 121 119 116 115 114 109 104 98 93 91 93 85 88 92 95 96 93 93 93 91 91 92 93 94 94 92 91 90 91 91 93 94 96 99 101 102 101 99 96 94
116 108 105 99 96 94 93 90 86 82 82 81 84 89 91 89 88 89 86 87 87 89 90 92 93 93 94 94 94 95 95 94 94 95 96 96 94 93 91 89 86 86 86
97 92 88 90 82 79 74 70 68 65 70 72 78 72 76 80 80 82 83 83 86 87 90 92 95 97 98 99 95 92 92 92 92 91 89 86 83 81 80 80 81 81 77
87 85 80 78 74 70 63 60 70 69 69 66 63 64 74 76 79 77 78 84 83 83 87 87 84 79 82 84 86 87 87 86 85 82 79 78 77 76 76 76 75 74 74
81 78 71 65 61 68 60 71 74 73 66 65 70 75 76 78 84 87 80 79 79 79 81 81 79 78 79 79 79 79 79 77 76 75 73 71 69 70 71 72 74 75 74
71 68 62 63 71 74 73 67 66 63 70 71 75 82 85 87 88 86 85 82 82 75 75 75 76 76 75 74 73 73 72 71 69 66 65 64 65 67 69 72 74 75 74
70 68 71 79 79 74 69 70 65 68 79 86 86 88 91 91 96 93 85 84 71 67 71 75 73 72 70 70 70 67 65 63 62 61 60 62 65 68 69 71 72 72 71
73 76 84 88 83 77 77 78 77 78 81 85 90 93 94 93 91 92 89 85 73 74 69 73 69 67 64 62 61 59 58 58 58 60 62 64 66 67 67 66 65 65 65
71 78 80 81 83 86 85 85 90 92 89 89 90 92 94 93 92 91 84 83 76 69 68 67 64 61 58 56 54 54 53 56 60 63 65 65 65 65 63 62 60 59 59
66 71 73 74 75 78 80 84 91 95 93 92 95 94 90 86 86 81 83 74 66 65 65 62 58 55 53 51 50 52 55 59 62 63 65 66 65 62 61 59 57 56 55
61 65 64 65 68 72 72 76 79 83 87 87 88 83 78 78 76 74 66 63 61 62 61 55 53 52 49 48 52 55 58 59 61 63 64 63 61 60 59 56 53 53 51
52 53 54 55 59 63 64 66 67 68 69 70 69 68 69 69 66 62 59 58 57 57 53 51 48 46 48 52 57 57 57 59 61 59 57 56 56 56 56 56 53 51 49
45 43 42 42 47 53 56 58 58 58 58 59 59 57 57 56 54 53 52 52 50 48 46 45 45 48 51 54 55 56 58 57 56 56 56 57 56 56 56 57 55 54 50
36 38 42 46 49 49 48 48 48 45 45 46 47 47 47 47 46 45 44 43 43 41 43 45 48 49 50 52 53 53 53 53 54 55 56 57 57 57 57 59 60 58 56